Tracking 23611 objects as of 18-Sep-2021
HD Live streaming from Space Station
objects crossing your sky now
Track INSPIRATION-4

GSTAR 4

Track GSTAR 4 now!
GSTAR 4 is classified as:


NORAD ID: 20946
Int'l Code: 1990-100B
Perigee: 36,090.9 km
Apogee: 36,134.0 km
Inclination: 13.1 °
Period: 1,452.4 minutes
Semi major axis: 42483 km
RCS: 8.7599 m2 (large)
Launch date: November 20, 1990
Source: United States (US)
Launch site: FRENCH GUIANA (FRGUI)
aabbcc
Your satellite tracking list
Your tracking list is empty




NASA's NSSDC Master Catalog

Two Line Element Set (TLE):
1 20946U 90100B   21261.21436818 -.00000275  00000-0  00000-0 0  9991
2 20946  13.0990  22.3404 0005080 332.5855  40.7260  0.99145568 29630
Source of the keplerian elements: AFSPC